Location: Twentynine Palms Airport
(34.1316°N, 115.9458°W)
Time: 08:11:53
(UTC-07:00)

Amateur Radio Satellites - All Passes

Search period start: 03 September 2015 07:41
Search period end: 04 September 2015 07:41
Location: Twentynine Palms Airport, 34.1316°N, 115.9458°W

Satellite Date Start Highest point End Downlink Frequencies (MHz)
Time Altitude Azimuth
PRISM 03 Sep 07:52:05 07:55:49 33° 262° (W) 07:59:31 437.425
STRAND 1 03 Sep 07:54:53 07:59:18 29° 264° (W) 08:03:40 437.568
HO-68 03 Sep 08:11:14 08:16:32 23° 93° (E) 08:22:06 435.675
AIST 1 03 Sep 08:22:53 08:26:51 38° 281° (W) 08:30:49
Cubesat XI-IV 03 Sep 08:23:44 08:27:19 18° 293° (WNW) 08:30:41 437.490
SO-50 03 Sep 08:37:33 08:41:01 19° 48° (NE) 08:44:33 436.795
YUBILEINY 03 Sep 08:43:45 08:52:33 72° 266° (W) 09:01:14 435.215
CUTE 1.7 + AOD 2 03 Sep 08:45:22 08:49:08 32° 97° (E) 08:52:56 437.475
BRITE-PL 03 Sep 08:50:20 08:55:44 48° 286° (WNW) 09:01:10 437.365/2234.400
CANX-2 03 Sep 08:59:32 09:03:42 56° 100° (E) 09:07:49 2200.000
Cosmos 2504 03 Sep 08:59:46 09:04:49 18° 65° (ENE) 09:10:09 435.465 / 435.565
ISS 03 Sep 09:02:34 09:04:07 13° 332° (NNW) 09:05:36 145.825
CUBEBUG 2 03 Sep 09:04:09 09:06:15 13° 90° (E) 09:08:36 437.445
DOVE 4 03 Sep 09:05:11 09:10:31 89° 101° (E) 09:15:43 437.250
GOMX 1 03 Sep 09:05:11 09:10:35 57° 285° (WNW) 09:15:54 467.674
PHONESAT 2.4 03 Sep 09:06:15 09:09:37 56° 20° (NNE) 09:12:57 2401.200-2431.200
SEEDS 03 Sep 09:15:57 09:20:05 62° 101° (E) 09:24:12 437.485
Cosmos 2491 03 Sep 09:27:16 09:35:53 64° 280° (W) 09:44:31 435.465 / 435.565
CINEMA 3 03 Sep 09:30:26 09:35:24 70° 101° (ESE) 09:40:08 145.822/145.860
UNISAT 6 03 Sep 09:30:51 09:33:49 17° 69° (ENE) 09:36:58 437.425
CUSAT 1 03 Sep 09:32:53 09:38:50 23° 68° (ENE) 09:45:10 437.405
COMPASS 1 03 Sep 09:33:06 09:37:15 78° 101° (ESE) 09:41:23 437.405
Oscar 11 03 Sep 09:37:17 09:40:57 28° 96° (E) 09:44:41 145.826/435.025
AUBIESAT-1 03 Sep 09:37:40 09:41:00 20° 65° (ENE) 09:44:25 437.475
AAUSAT CUBESAT 2 03 Sep 09:40:47 09:44:56 80° 103° (ESE) 09:49:02 437.432
M-CUBED/EXP-1 PRIME 03 Sep 09:45:02 09:49:04 28° 67° (ENE) 09:53:07 437.505
DELFI C3 03 Sep 09:45:34 09:48:31 20° 94° (E) 09:51:34 145.870
PCSat 03 Sep 09:48:19 09:52:23 22° 52° (NE) 09:56:34 145.827
TIGRISAT 03 Sep 09:56:58 10:01:03 32° 72° (ENE) 10:05:15 435.000
HO-68 03 Sep 09:57:40 10:04:42 57° 289° (WNW) 10:11:40 435.675
DUCHIFAT 1 03 Sep 10:07:30 10:09:08 12° 68° (ENE) 10:11:00 145.980
POLYITAN 1 03 Sep 10:07:49 10:09:51 14° 68° (ENE) 10:12:07 437.675
POPSAT HIP 1 03 Sep 10:09:15 10:11:17 14° 68° (ENE) 10:13:33 437.405
ANTELSAT 03 Sep 10:14:47 10:19:20 52° 75° (ENE) 10:23:56 437.575/2403.000
SO-50 03 Sep 10:17:09 10:21:52 48° 245° (WSW) 10:26:25 436.795
DANDE 03 Sep 10:20:23 10:27:36 37° 74° (ENE) 10:35:23 436.750
CUTE 1.7 + AOD 2 03 Sep 10:22:04 10:24:49 17° 290° (WNW) 10:27:25 437.475
NANOSAT C BR1 03 Sep 10:24:32 10:27:37 21° 70° (ENE) 10:30:50 145.865
QB50P2 03 Sep 10:25:39 10:28:55 22° 71° (ENE) 10:32:18 145.880/145.840
ZACube-1 03 Sep 10:26:14 10:30:41 70° 101° (E) 10:34:59 437.345
FUNcube-1 03 Sep 10:30:16 10:34:43 76° 100° (E) 10:39:01 145.935
QB50P1 03 Sep 10:38:46 10:42:28 31° 72° (ENE) 10:46:16 145.935-145.965
CUBEBUG 2 03 Sep 10:38:50 10:43:17 46° 286° (WNW) 10:47:33 437.445
UWE-3 03 Sep 10:39:39 10:44:08 59° 285° (WNW) 10:48:27 435.000/436.395/437.385
PHONESAT 2.4 03 Sep 10:44:27 10:47:20 26° 214° (SW) 10:50:13 2401.200-2431.200
HUMSAT D 03 Sep 10:47:35 10:51:35 42° 98° (E) 10:55:32 437.325/437.525
Cosmos 2504 03 Sep 10:49:48 10:58:12 78° 266° (W) 11:05:58 435.465 / 435.565
UNISAT 6 03 Sep 11:05:52 11:10:17 41° 262° (W) 11:14:44 437.425
DX 1 03 Sep 11:09:51 11:14:00 41° 99° (E) 11:18:09 434.975-435.025
CINEMA 3 03 Sep 11:10:19 11:11:58 11° 294° (WNW) 11:13:19 145.822/145.860
AUBIESAT-1 03 Sep 11:10:59 11:15:26 39° 258° (WSW) 11:19:48 437.475
Oscar 11 03 Sep 11:13:46 11:17:00 20° 289° (WNW) 11:20:04 145.826/435.025
CUSAT 1 03 Sep 11:13:59 11:22:05 72° 264° (W) 11:30:04 437.405
UKube-1 03 Sep 11:17:48 11:21:58 45° 99° (E) 11:26:08 .
M-CUBED/EXP-1 PRIME 03 Sep 11:19:37 11:23:43 27° 260° (W) 11:27:44 437.505
DELFI C3 03 Sep 11:20:20 11:23:31 23° 288° (WNW) 11:26:38 145.870
JUGNU 03 Sep 11:29:11 11:32:29 15° 169° (S) 11:35:50 437.505
PCSat 03 Sep 11:30:53 11:36:04 46° 249° (WSW) 11:41:11 145.827
TIGRISAT 03 Sep 11:34:13 11:37:50 21° 266° (W) 11:41:21 435.000
BUGSAT 1 03 Sep 11:35:04 11:39:07 87° 79° (E) 11:43:16 437.445
CUBEBUG 1 03 Sep 11:35:24 11:39:16 30° 97° (E) 11:43:12 437.445
50 SAT 03 Sep 11:37:39 11:41:29 72° 101° (E) 11:45:17 437.505
DUCHIFAT 1 03 Sep 11:40:29 11:44:33 46° 261° (W) 11:48:40 145.980
ESTCUBE 1 03 Sep 11:41:14 11:45:32 44° 99° (E) 11:49:51 437.505/2401.250
POLYITAN 1 03 Sep 11:41:20 11:45:25 42° 262° (W) 11:49:30 437.675
POPSAT HIP 1 03 Sep 11:42:46 11:46:49 42° 262° (W) 11:50:52 437.405
AISAT 03 Sep 11:43:33 11:48:02 68° 101° (E) 11:52:30 437.250
ANTELSAT 03 Sep 11:54:17 11:56:28 13° 270° (W) 11:58:22 437.575/2403.000
NANOSAT C BR1 03 Sep 11:59:40 12:03:18 27° 264° (W) 12:06:54 145.865
QB50P2 03 Sep 12:01:10 12:04:42 25° 265° (W) 12:08:11 145.880/145.840
DANDE 03 Sep 12:03:11 12:10:51 47° 268° (W) 12:18:46 436.750
VELOX 1 03 Sep 12:10:56 12:15:21 60° 284° (WNW) 12:19:44 145.980
TISAT 1 03 Sep 12:13:43 12:15:11 12° 91° (E) 12:16:56 437.305
QB50P1 03 Sep 12:15:27 12:18:24 18° 267° (W) 12:21:14 145.935-145.965
HUMSAT D 03 Sep 12:24:57 12:26:57 13° 292° (WNW) 12:28:44 437.325/437.525
SRMSAT 03 Sep 12:45:35 12:47:54 12° 166° (SSE) 12:50:20 437.500
Cosmos 2504 03 Sep 12:46:50 12:49:07 11° 281° (WNW) 12:50:37 435.465 / 435.565
DX 1 03 Sep 12:47:21 12:49:56 15° 292° (WNW) 12:52:19 434.975-435.025
SPROUT 03 Sep 12:54:55 12:59:16 77° 101° (E) 13:03:35 437.525
UKube-1 03 Sep 12:55:33 12:57:44 13° 292° (WNW) 12:59:43 .
BEESAT 3 03 Sep 12:58:04 12:59:56 13° 110° (ESE) 13:02:02 437.485
CUSAT 1 03 Sep 13:00:46 13:03:39 12° 277° (W) 13:05:49 437.405
CUBEBUG 1 03 Sep 13:12:09 13:15:27 20° 290° (WNW) 13:18:37 437.445
Oscar 19 03 Sep 13:12:39 13:17:42 61° 75° (ENE) 13:22:50 437.125/150
BEESAT 2 03 Sep 13:14:12 13:16:31 15° 110° (ESE) 13:19:00 435.950
SWISSCUBE 03 Sep 13:16:10 13:16:56 10° 90° (E) 13:18:04 437.505
JUGNU 03 Sep 13:16:40 13:20:51 20° 179° (S) 13:25:02 437.505
ESTCUBE 1 03 Sep 13:19:30 13:22:03 15° 292° (WNW) 13:24:25 437.505/2401.250
GONETS M04 03 Sep 13:31:18 13:39:53 55° 79° (ENE) 13:48:31
RS-15 03 Sep 13:35:11 13:39:30 14° 101° (E) 13:44:57 29.354- 29.394
TISAT 1 03 Sep 13:47:09 13:51:15 45° 286° (WNW) 13:55:18 437.305
ITUPSAT 1 03 Sep 13:53:28 13:57:25 26° 96° (E) 14:01:28 437.325
ISS 03 Sep 13:55:13 13:57:30 18° 32° (NNE) 13:59:48 145.825
AIST 2 03 Sep 14:11:58 14:13:33 12° 109° (ESE) 14:15:24 435.215
Cosmos 2499 03 Sep 14:14:51 14:21:29 26° 69° (ENE) 14:28:02 435.465 / 435.565
Gurwin Techsat 1B 03 Sep 14:17:44 14:23:02 79° 77° (ENE) 14:28:22 435.225
ITAMSAT 1 03 Sep 14:18:10 14:23:16 64° 74° (ENE) 14:28:23 435.822/435.867
BEESAT 03 Sep 14:24:08 14:28:50 60° 101° (E) 14:33:32 436.000
JAS-2 03 Sep 14:27:09 14:34:30 53° 72° (ENE) 14:42:06 435.910
SRMSAT 03 Sep 14:32:22 14:36:24 19° 175° (S) 14:40:28 437.500
BEESAT 3 03 Sep 14:33:41 14:37:32 41° 303° (WNW) 14:41:24 437.485
KKS-1 03 Sep 14:47:25 14:49:50 15° 92° (E) 14:52:28 437.445
BEESAT 2 03 Sep 14:50:28 14:54:16 37° 304° (WNW) 14:58:06 435.950
SWISSCUBE 03 Sep 14:50:34 14:55:16 62° 286° (WNW) 14:59:58 437.505
HORYU 2 03 Sep 14:54:09 14:56:37 15° 68° (ENE) 14:59:17 437.375
Oscar 19 03 Sep 14:55:07 14:57:33 13° 270° (W) 14:59:38 437.125/150
AO-7 03 Sep 14:58:18 15:05:51 41° 65° (ENE) 15:13:31 29.400- 29.500
JUGNU 03 Sep 15:05:31 15:09:13 17° 189° (S) 15:12:52 437.505
GONETS M04 03 Sep 15:29:07 15:36:18 28° 274° (W) 15:43:10
ISS 03 Sep 15:30:58 15:34:03 40° 228° (SW) 15:37:06 145.825
ITUPSAT 1 03 Sep 15:31:16 15:35:15 26° 290° (WNW) 15:39:07 437.325
RS-15 03 Sep 15:39:34 15:50:26 80° 116° (ESE) 16:01:43 29.354- 29.394
AIST 2 03 Sep 15:47:39 15:51:45 48° 302° (WNW) 15:55:53 435.215
STARS 03 Sep 15:55:45 16:00:06 53° 100° (E) 16:04:27 437.465
ITAMSAT 1 03 Sep 16:01:11 16:03:17 12° 270° (W) 16:05:02 435.822/435.867
BEESAT 03 Sep 16:04:14 16:06:13 12° 294° (WNW) 16:07:55 436.000
Cosmos 2499 03 Sep 16:06:58 16:15:16 57° 269° (W) 16:22:52 435.465 / 435.565
JAS-2 03 Sep 16:13:13 16:19:48 29° 268° (W) 16:26:19 435.910
SRMSAT 03 Sep 16:20:56 16:24:55 19° 185° (S) 16:28:54 437.500
KKS-1 03 Sep 16:22:28 16:26:42 41° 286° (WNW) 16:30:53 437.445
HORYU 2 03 Sep 16:28:39 16:32:55 43° 261° (W) 16:37:13 437.375
AO-7 03 Sep 16:50:55 16:58:39 40° 261° (W) 17:06:16 29.400- 29.500
MOZHAYETS 4 03 Sep 16:57:11 17:01:42 62° 101° (E) 17:06:12
CUTE-I 03 Sep 17:07:02 17:10:12 17° 67° (ENE) 17:13:35 437.470
O/OREOS (USA 219) 03 Sep 17:32:59 17:36:32 24° 103° (ESE) 17:40:13 437.305
STARS 03 Sep 17:34:19 17:36:08 12° 293° (WNW) 17:37:42 437.465
RS-15 03 Sep 17:55:00 18:04:16 29° 321° (NW) 18:13:33 29.354- 29.394
Cubesat XI-IV 03 Sep 18:00:42 18:05:54 57° 74° (ENE) 18:11:07 437.490
SRMSAT 03 Sep 18:11:21 18:13:25 12° 194° (SSW) 18:15:22 437.500
BRITE-PL 03 Sep 18:22:40 18:24:04 12° 65° (ENE) 18:25:46 437.365/2234.400
STRAND 1 03 Sep 18:32:01 18:33:39 12° 90° (E) 18:35:40 437.568
AIST 1 03 Sep 18:33:37 18:37:31 33° 78° (ENE) 18:41:29
MOZHAYETS 4 03 Sep 18:37:13 18:38:27 11° 293° (WNW) 18:39:23
HO-68 03 Sep 18:39:40 18:41:44 12° 58° (ENE) 18:44:18 435.675
CUTE-I 03 Sep 18:44:42 18:49:54 53° 260° (W) 18:55:05 437.470
CUBESAT XI-V 03 Sep 18:59:48 19:04:27 74° 283° (WNW) 19:09:06 437.345
O/OREOS (USA 219) 03 Sep 19:12:02 19:15:53 26° 297° (WNW) 19:19:42 437.305
CUTE 1.7 + AOD 2 03 Sep 19:35:40 19:38:10 16° 70° (ENE) 19:40:50 437.475
PRISM 03 Sep 19:37:29 19:41:21 40° 99° (E) 19:45:16 437.425
Cosmos 2491 03 Sep 19:42:09 19:50:40 55° 78° (ENE) 19:59:16 435.465 / 435.565
Cubesat XI-IV 03 Sep 19:43:28 19:46:26 14° 269° (W) 19:49:05 437.490
YUBILEINY 03 Sep 19:45:03 19:51:50 27° 85° (E) 19:58:59 435.215
CANX-2 03 Sep 19:49:08 19:52:38 25° 72° (ENE) 19:56:12 2200.000
BRITE-PL 03 Sep 19:57:46 20:02:03 56° 261° (W) 20:06:40 437.365/2234.400
SEEDS 03 Sep 20:04:33 20:08:05 27° 72° (ENE) 20:11:41 437.485
DOVE 4 03 Sep 20:06:46 20:11:16 57° 75° (ENE) 20:16:07 437.250
STRAND 1 03 Sep 20:08:18 20:13:23 64° 285° (WNW) 20:18:26 437.568
GOMX 1 03 Sep 20:09:28 20:13:58 77° 259° (W) 20:18:51 467.674
AIST 1 03 Sep 20:12:12 20:14:55 16° 271° (W) 20:17:27
RS-15 03 Sep 20:19:03 20:22:29 11° 355° (N) 20:25:49 29.354- 29.394
COMPASS 1 03 Sep 20:20:39 20:24:21 31° 73° (ENE) 20:28:06 437.405
HO-68 03 Sep 20:21:20 20:28:27 75° 73° (ENE) 20:35:39 435.675
AAUSAT CUBESAT 2 03 Sep 20:27:52 20:31:34 32° 73° (ENE) 20:35:18 437.432
CINEMA 3 03 Sep 20:28:04 20:32:27 40° 73° (ENE) 20:37:03 145.822/145.860
Oscar 11 03 Sep 20:29:42 20:32:00 15° 69° (ENE) 20:34:32 145.826/435.025
CUTE 1.7 + AOD 2 03 Sep 21:09:50 21:13:49 36° 263° (W) 21:17:46 437.475
PRISM 03 Sep 21:14:23 21:16:28 13° 292° (WNW) 21:18:22 437.425
ZACube-1 03 Sep 21:18:13 21:22:19 35° 73° (ENE) 21:26:31 437.345
FUNcube-1 03 Sep 21:21:57 21:26:06 37° 73° (ENE) 21:30:22 145.935
CANX-2 03 Sep 21:25:08 21:28:30 22° 266° (W) 21:31:47 2200.000
Cosmos 2504 03 Sep 21:27:29 21:30:48 14° 80° (E) 21:34:52 435.465 / 435.565
UWE-3 03 Sep 21:32:14 21:36:49 70° 76° (ENE) 21:41:30 435.000/436.395/437.385
CUBEBUG 2 03 Sep 21:32:22 21:37:01 89° 267° (W) 21:41:47 437.445
HUMSAT D 03 Sep 21:36:08 21:39:14 20° 71° (ENE) 21:42:28 437.325/437.525
YUBILEINY 03 Sep 21:39:38 21:48:13 55° 282° (WNW) 21:56:49 435.215
Cosmos 2491 03 Sep 21:40:00 21:47:07 27° 274° (W) 21:53:56 435.465 / 435.565
SEEDS 03 Sep 21:40:38 21:43:52 20° 266° (W) 21:46:58 437.485
DOVE 4 03 Sep 21:47:50 21:49:35 12° 273° (W) 21:51:02 437.250
COMPASS 1 03 Sep 21:57:18 22:00:06 17° 267° (W) 22:02:45 437.405
DX 1 03 Sep 22:02:24 22:05:44 23° 70° (ENE) 22:09:11 434.975-435.025
DELFI C3 03 Sep 22:02:33 22:06:34 65° 259° (W) 22:10:35 145.870
Oscar 11 03 Sep 22:03:46 22:07:53 40° 262° (W) 22:11:59 145.826/435.025
AAUSAT CUBESAT 2 03 Sep 22:04:30 22:07:15 16° 267° (W) 22:09:49 437.432
CINEMA 3 03 Sep 22:06:41 22:09:53 17° 269° (W) 22:12:56 145.822/145.860
UKube-1 03 Sep 22:09:25 22:12:51 24° 71° (ENE) 22:16:22 .
ANTELSAT 03 Sep 22:12:20 22:14:38 14° 91° (E) 22:17:07 437.575/2403.000
HO-68 03 Sep 22:12:30 22:16:57 16° 270° (W) 22:20:58 435.675
50 SAT 03 Sep 22:17:46 22:20:51 23° 72° (ENE) 22:24:01 437.505
CUBEBUG 1 03 Sep 22:29:02 22:31:38 16° 69° (ENE) 22:34:24 437.445
RS-15 03 Sep 22:33:51 22:41:43 20° 30° (NNE) 22:50:15 29.354- 29.394
ESTCUBE 1 03 Sep 22:37:37 22:41:18 26° 71° (ENE) 22:45:04 437.505/2401.250
AISAT 03 Sep 22:37:41 22:41:43 37° 73° (ENE) 22:45:48 437.250
CUSAT 1 03 Sep 22:37:45 22:39:28 13° 82° (E) 22:41:39 437.405
SO-50 03 Sep 22:50:13 22:51:58 12° 108° (ESE) 22:54:02 436.795
BEESAT 3 03 Sep 22:55:27 22:59:06 33° 56° (NE) 23:02:44 437.485
ZACube-1 03 Sep 22:55:35 22:58:47 18° 268° (W) 23:01:51 437.345
AUBIESAT-1 03 Sep 22:56:27 22:58:58 18° 98° (E) 23:01:29 437.475
FUNcube-1 03 Sep 22:59:32 23:02:34 17° 268° (W) 23:05:27 145.935
UNISAT 6 03 Sep 23:01:32 23:05:58 56° 100° (E) 23:10:17 437.425
VELOX 1 03 Sep 23:04:28 23:08:51 75° 76° (ENE) 23:13:16 145.980
M-CUBED/EXP-1 PRIME 03 Sep 23:04:41 23:07:57 29° 100° (E) 23:11:03 437.505
HUMSAT D 03 Sep 23:11:01 23:14:47 29° 264° (W) 23:18:32 437.325/437.525
BEESAT 2 03 Sep 23:12:40 23:16:27 38° 57° (ENE) 23:20:12 435.950
Cosmos 2504 03 Sep 23:13:46 23:21:53 87° 95° (E) 23:30:31 435.465 / 435.565
BUGSAT 1 03 Sep 23:21:55 23:24:40 17° 93° (E) 23:27:35 437.445
TIGRISAT 03 Sep 23:28:37 23:33:07 72° 284° (WNW) 23:37:29 435.000
DUCHIFAT 1 03 Sep 23:28:49 23:32:44 35° 97° (E) 23:36:38 145.980
DANDE 03 Sep 23:29:32 23:32:29 26° 88° (E) 23:36:17 436.750
POLYITAN 1 03 Sep 23:30:19 23:34:21 39° 98° (E) 23:38:22 437.675
POPSAT HIP 1 03 Sep 23:31:28 23:35:31 39° 98° (E) 23:39:32 437.405
DX 1 03 Sep 23:38:15 23:41:53 25° 264° (W) 23:45:27 434.975-435.025
SPROUT 03 Sep 23:45:24 23:49:17 35° 73° (ENE) 23:53:15 437.525
UKube-1 03 Sep 23:45:25 23:48:55 23° 265° (W) 23:52:20 .
NANOSAT C BR1 03 Sep 23:47:23 23:51:39 62° 100° (E) 23:55:52 145.865
ANTELSAT 03 Sep 23:47:25 23:51:41 41° 286° (WNW) 23:55:48 437.575/2403.000
QB50P2 03 Sep 23:49:11 23:53:29 70° 100° (E) 23:57:45 145.880/145.840
50 SAT 03 Sep 23:52:15 23:55:18 20° 266° (W) 23:58:15 437.505
QB50P1 04 Sep 00:02:33 00:06:52 82° 283° (WNW) 00:11:08 145.935-145.965
CUBEBUG 1 04 Sep 00:03:45 00:07:44 35° 262° (W) 00:11:43 437.445
AIST 2 04 Sep 00:12:53 00:16:40 33° 55° (NE) 00:20:24 435.215
ESTCUBE 1 04 Sep 00:14:31 00:18:08 23° 265° (W) 00:21:39 437.505/2401.250
AISAT 04 Sep 00:15:40 00:18:27 16° 268° (W) 00:21:03 437.250
CUSAT 1 04 Sep 00:17:27 00:21:12 39° 286° (WNW) 00:26:08 437.405
PCSat 04 Sep 00:25:37 00:30:34 39° 110° (ESE) 00:35:36 145.827
SO-50 04 Sep 00:27:19 00:32:01 61° 302° (WNW) 00:36:53 436.795
AUBIESAT-1 04 Sep 00:30:47 00:33:42 21° 294° (WNW) 00:36:23 437.475
BEESAT 3 04 Sep 00:34:15 00:36:46 16° 249° (WSW) 00:39:07 437.485
TISAT 1 04 Sep 00:34:59 00:39:11 79° 77° (ENE) 00:43:26 437.305
M-CUBED/EXP-1 PRIME 04 Sep 00:40:21 00:42:30 14° 297° (WNW) 00:44:25 437.505
UNISAT 6 04 Sep 00:40:38 00:42:16 12° 293° (WNW) 00:43:38 437.425
RS-15 04 Sep 00:45:17 00:57:08 67° 57° (ENE) 01:09:23 29.354- 29.394
BEESAT 2 04 Sep 00:52:00 00:54:10 14° 250° (WSW) 00:56:09 435.950
BUGSAT 1 04 Sep 00:56:23 01:00:13 32° 287° (WNW) 01:03:58 437.445
ITUPSAT 1 04 Sep 00:57:12 01:00:41 21° 69° (ENE) 01:04:18 437.325
DUCHIFAT 1 04 Sep 01:05:30 01:08:16 16° 291° (WNW) 01:10:50 145.980
POLYITAN 1 04 Sep 01:07:26 01:09:56 15° 291° (WNW) 01:12:15 437.675
POPSAT HIP 1 04 Sep 01:08:35 01:11:04 15° 291° (WNW) 01:13:21 437.405
Cosmos 2504 04 Sep 01:10:20 01:15:27 16° 296° (WNW) 01:20:08 435.465 / 435.565
DANDE 04 Sep 01:13:34 01:15:55 15° 296° (WNW) 01:18:26 436.750
SPROUT 04 Sep 01:22:50 01:25:31 16° 268° (W) 01:28:01 437.525
BEESAT 04 Sep 01:26:54 01:31:25 45° 74° (ENE) 01:35:58 436.000
Oscar 19 04 Sep 01:28:28 01:32:54 29° 96° (E) 01:37:24 437.125/150
VERMONT LUNAR 04 Sep 01:34:11 01:37:09 60° 153° (SSE) 01:40:07 437.305
AIST 2 04 Sep 01:52:11 01:54:59 17° 250° (WSW) 01:57:38 435.215
SWISSCUBE 04 Sep 01:53:08 01:57:54 84° 258° (WSW) 02:02:40 437.505
PCSat 04 Sep 02:09:39 02:14:07 25° 306° (NW) 02:18:29 145.827
GONETS M04 04 Sep 02:27:11 02:35:46 71° 94° (E) 02:44:27
ITUPSAT 1 04 Sep 02:34:04 02:38:23 33° 263° (W) 02:42:40 437.325
ITAMSAT 1 04 Sep 02:35:09 02:39:41 31° 96° (E) 02:44:16 435.822/435.867
Gurwin Techsat 1B 04 Sep 02:37:58 02:42:58 42° 98° (E) 02:48:01 435.225
Cosmos 2499 04 Sep 02:46:40 02:52:43 23° 84° (E) 02:59:21 435.465 / 435.565
STARS 04 Sep 02:49:11 02:52:58 29° 72° (ENE) 02:56:51 437.465
RS-15 04 Sep 02:58:52 03:09:03 32° 254° (WSW) 03:18:58 29.354- 29.394
AO-7 04 Sep 03:06:30 03:10:10 14° 89° (E) 03:14:31 29.400- 29.500
BEESAT 04 Sep 03:06:41 03:09:32 15° 268° (W) 03:12:08 436.000
Oscar 19 04 Sep 03:07:47 03:12:12 28° 290° (WNW) 03:16:30 437.125/150
VERMONT LUNAR 04 Sep 03:10:58 03:13:41 30° 347° (NNW) 03:16:23 437.305
KKS-1 04 Sep 03:16:22 03:20:48 73° 258° (WSW) 03:25:17 437.445
PHONESAT 2.4 04 Sep 03:26:00 03:29:11 38° 149° (SSE) 03:32:25 2401.200-2431.200
JAS-2 04 Sep 03:27:11 03:33:44 59° 99° (E) 03:39:31 435.910
O/OREOS (USA 219) 04 Sep 03:46:11 03:50:00 26° 62° (ENE) 03:53:52 437.305
MOZHAYETS 4 04 Sep 03:55:26 03:59:39 37° 73° (ENE) 04:03:55
ITAMSAT 1 04 Sep 04:14:46 04:19:06 27° 290° (WNW) 04:23:19 435.822/435.867
Gurwin Techsat 1B 04 Sep 04:18:47 04:22:41 21° 292° (WNW) 04:26:26 435.225
HORYU 2 04 Sep 04:23:23 04:27:40 46° 99° (E) 04:31:56 437.375
STARS 04 Sep 04:26:08 04:29:27 20° 266° (W) 04:32:39 437.465
GONETS M04 04 Sep 04:27:12 04:33:34 21° 293° (WNW) 04:39:30
Cosmos 2499 04 Sep 04:36:47 04:45:11 66° 280° (W) 04:54:00 435.465 / 435.565
VERMONT LUNAR 04 Sep 04:48:05 04:50:34 23° 4° (N) 04:53:02 437.305
AO-7 04 Sep 04:55:49 05:04:09 89° 107° (ESE) 05:12:27 29.400- 29.500
PHONESAT 2.4 04 Sep 05:03:46 05:07:03 44° 343° (NNW) 05:10:20 2401.200-2431.200
JAS-2 04 Sep 05:13:32 05:18:11 20° 297° (WNW) 05:22:15 435.910
O/OREOS (USA 219) 04 Sep 05:25:35 05:29:21 25° 257° (WSW) 05:33:01 437.305
MOZHAYETS 4 04 Sep 05:33:57 05:37:02 17° 268° (W) 05:39:56
STRAND 1 04 Sep 05:44:42 05:46:43 13° 66° (ENE) 05:49:03 437.568
CUBESAT XI-V 04 Sep 05:59:15 06:03:48 69° 76° (ENE) 06:08:23 437.345
HORYU 2 04 Sep 06:01:38 06:03:57 14° 292° (WNW) 06:06:01 437.375
Cubesat XI-IV 04 Sep 06:22:07 06:26:45 31° 96° (E) 06:31:29 437.490
VERMONT LUNAR 04 Sep 06:24:23 06:27:18 55° 20° (NNE) 06:30:14 437.305
PRISM 04 Sep 06:24:45 06:27:30 18° 70° (ENE) 06:30:24 437.425
ISS 04 Sep 06:31:11 06:34:07 32° 132° (SE) 06:37:05 145.825
Cosmos 2499 04 Sep 06:39:29 06:40:32 10° 302° (WNW) 06:40:42 435.465 / 435.565
PHONESAT 2.4 04 Sep 06:42:26 06:45:23 26° 0° (N) 06:48:20 2401.200-2431.200
AO-7 04 Sep 06:50:45 06:56:02 18° 303° (WNW) 07:00:54 29.400- 29.500
AIST 1 04 Sep 06:59:40 07:02:58 23° 90° (E) 07:06:22
CUTE-I 04 Sep 07:05:23 07:10:44 84° 103° (ESE) 07:16:05 437.470
STRAND 1 04 Sep 07:20:23 07:25:27 65° 259° (WSW) 07:30:31 437.568
